Location: Berlise
(49.6641°N, 4.1077°E)
Time: 00:14:15
(UTC+00:00)

PSLV R/B - Pass Details

Date: 27 January 2021
Orbit: 504 x 577 km, 97.8° (Epoch: 28 February)

Event Time Altitude Azimuth Distance (km) Brightness Sun altitude
Rises 06:22:32 0° 7° (N) 2,740 7.3 -9.8°
Reaches altitude 10° 06:24:44 10° 1° (N) 1,852 6.3 -9.5°
Maximum altitude 06:28:30 41° 291° (WNW) 832 4.3 -8.9°
Drops below altitude 10° 06:32:19 10° 221° (SW) 1,871 6.3 -8.3°
Sets 06:34:32 0° 214° (SW) 2,771 7.2 -8.0°
